• In Portugal
  • List of Countries
  • For 7 days
  • Water Temperature
  • Satellite Maps
  • Weather Map
  • Weather Widgets
  • user-avatar
    Login

    Hourly Weather Baku

    Today, 24 June, Sunday

    Time Temperature Precipitation Wind Pressure Humidity
    00:00 +29°C° 0 mm 1 mps 756 mmHg 41%
    01:00 +29°C° 0 mm 1 mps 756 mmHg 41%
    02:00 +29°C° 0 mm 1 mps 755 mmHg 41%
    03:00 +28°C° 0 mm 2 mps 755 mmHg 41%
    04:00 +29°C° 0 mm 2 mps 756 mmHg 41%
    05:00 +29°C° 0 mm 3 mps 756 mmHg 41%
    06:00 +29°C° 0 mm 3 mps 756 mmHg 41%
    07:00 +30°C° 0 mm 3 mps 756 mmHg 38%
    08:00 +33°C° 0 mm 3 mps 756 mmHg 36%
    09:00 +34°C° 0 mm 3 mps 757 mmHg 34%
    10:00 +34°C° 0 mm 3 mps 757 mmHg 33%
    11:00 +35°C° 0 mm 3 mps 757 mmHg 32%
    12:00 +36°C° 0 mm 3 mps 757 mmHg 31%
    13:00 +36°C° 0 mm 3 mps 757 mmHg 30%
    14:00 +36°C° 0 mm 3 mps 756 mmHg 30%
    15:00 +36°C° 0 mm 3 mps 757 mmHg 32%
    16:00 +35°C° 0 mm 3 mps 757 mmHg 33%
    17:00 +35°C° 0 mm 3 mps 757 mmHg 35%
    18:00 +34°C° 0 mm 3 mps 757 mmHg 37%
    19:00 +33°C° 0 mm 4 mps 757 mmHg 39%
    20:00 +32°C° 0 mm 4 mps 757 mmHg 42%
    21:00 +30°C° 0 mm 4 mps 757 mmHg 45%
    22:00 +30°C° 0 mm 5 mps 757 mmHg 45%
    23:00 +29°C° 0 mm 5 mps 757 mmHg 45%

    Tomorrow, 25 June, Monday

    Time Temperature Precipitation Wind Pressure Humidity
    00:00 +29°C° 0 mm 5 mps 757 mmHg 45%
    01:00 +29°C° 0 mm 6 mps 757 mmHg 46%
    02:00 +28°C° 0 mm 6 mps 757 mmHg 46%
    03:00 +28°C° 0 mm 6 mps 757 mmHg 47%
    04:00 +28°C° 0 mm 6 mps 758 mmHg 46%
    05:00 +29°C° 0 mm 6 mps 758 mmHg 45%
    06:00 +29°C° 0 mm 6 mps 758 mmHg 44%
    07:00 +30°C° 0 mm 7 mps 758 mmHg 41%
    08:00 +32°C° 0 mm 7 mps 758 mmHg 38%
    09:00 +33°C° 0 mm 7 mps 758 mmHg 36%
    10:00 +33°C° 0 mm 7 mps 758 mmHg 35%
    11:00 +34°C° 0 mm 7 mps 758 mmHg 34%
    12:00 +35°C° 0 mm 7 mps 758 mmHg 33%
    13:00 +34°C° 0 mm 7 mps 758 mmHg 33%
    14:00 +34°C° 0 mm 7 mps 758 mmHg 34%
    15:00 +34°C° 0 mm 7 mps 757 mmHg 35%
    16:00 +34°C° 0 mm 7 mps 757 mmHg 37%
    17:00 +33°C° 0 mm 7 mps 757 mmHg 39%
    18:00 +33°C° 0 mm 6 mps 757 mmHg 41%
    19:00 +32°C° 0 mm 6 mps 757 mmHg 42%
    20:00 +32°C° 0 mm 6 mps 757 mmHg 44%
    21:00 +30°C° 0 mm 6 mps 757 mmHg 46%
    22:00 +30°C° 0 mm 6 mps 757 mmHg 47%
    23:00 +30°C° 0 mm 6 mps 757 mmHg 47%

    Day after tomorrow, 26 June, Tuesday

    Time Temperature Precipitation Wind Pressure Humidity
    00:00 +29°C° 0 mm 5 mps 757 mmHg 48%
    01:00 +29°C° 0 mm 5 mps 757 mmHg 49%
    02:00 +29°C° 0 mm 5 mps 756 mmHg 50%
    03:00 +28°C° 0 mm 5 mps 756 mmHg 51%
    04:00 +29°C° 0 mm 4 mps 756 mmHg 49%
    05:00 +29°C° 0 mm 4 mps 756 mmHg 47%
    06:00 +30°C° 0 mm 4 mps 756 mmHg 45%
    07:00 +30°C° 0 mm 4 mps 756 mmHg 43%
    08:00 +31°C° 0 mm 3 mps 756 mmHg 41%
    09:00 +33°C° 0 mm 3 mps 756 mmHg 38%
    10:00 +34°C° 0 mm 3 mps 756 mmHg 36%
    11:00 +35°C° 0 mm 3 mps 756 mmHg 34%
    12:00 +36°C° 0 mm 3 mps 756 mmHg 31%
    13:00 +36°C° 0 mm 4 mps 755 mmHg 30%
    14:00 +37°C° 0 mm 4 mps 755 mmHg 30%
    15:00 +37°C° 0 mm 4 mps 755 mmHg 29%
    16:00 +37°C° 0 mm 4 mps 755 mmHg 31%
    17:00 +36°C° 0 mm 4 mps 754 mmHg 33%
    18:00 +35°C° 0 mm 3 mps 754 mmHg 35%
    19:00 +35°C° 0 mm 3 mps 755 mmHg 37%
    20:00 +34°C° 0 mm 2 mps 755 mmHg 39%
    21:00 +32°C° 0 mm 1 mps 755 mmHg 41%
    22:00 +32°C° 0 mm 1 mps 755 mmHg 41%
    23:00 +32°C° 0 mm 1 mps 755 mmHg 42%

    27 June, Wednesday

    Time Temperature Precipitation Wind Pressure Humidity
    00:00 +29°C° 0 mm 0 mps 754 mmHg 43%
    01:00 +31°C° 0 mm 1 mps 754 mmHg 43%
    02:00 +31°C° 0 mm 1 mps 754 mmHg 42%
    03:00 +30°C° 0 mm 1 mps 754 mmHg 42%
    04:00 +31°C° 0 mm 1 mps 754 mmHg 40%
    05:00 +31°C° 0 mm 1 mps 754 mmHg 39%
    06:00 +31°C° 0 mm 1 mps 754 mmHg 38%
    07:00 +32°C° 0 mm 2 mps 754 mmHg 36%
    08:00 +34°C° 0 mm 2 mps 755 mmHg 34%
    09:00 +35°C° 0 mm 2 mps 755 mmHg 31%
    10:00 +36°C° 0 mm 2 mps 754 mmHg 29%
    11:00 +37°C° 0 mm 3 mps 754 mmHg 27%
    12:00 +38°C° 0 mm 3 mps 754 mmHg 25%
    13:00 +38°C° 0 mm 3 mps 754 mmHg 25%
    14:00 +38°C° 0 mm 4 mps 754 mmHg 25%
    15:00 +40°C° 0 mm 5 mps 753 mmHg 24%
    16:00 +39°C° 0 mm 5 mps 754 mmHg 25%
    17:00 +37°C° 0 mm 5 mps 754 mmHg 26%
    18:00 +37°C° 0 mm 5 mps 754 mmHg 27%
    19:00 +36°C° 0 mm 4 mps 754 mmHg 29%
    20:00 +35°C° 0 mm 4 mps 754 mmHg 31%
    21:00 +34°C° 0 mm 3 mps 755 mmHg 32%
    22:00 +34°C° 0 mm 3 mps 754 mmHg 33%
    23:00 +32°C° 0 mm 2 mps 754 mmHg 34%

    28 June, Thursday

    Time Temperature Precipitation Wind Pressure Humidity
    00:00 +32°C° 0 mm 1 mps 754 mmHg 35%
    01:00 +31°C° 0 mm 2 mps 754 mmHg 35%
    02:00 +31°C° 0 mm 3 mps 754 mmHg 35%
    03:00 +32°C° 0 mm 4 mps 754 mmHg 35%
    04:00 +32°C° 0 mm 4 mps 754 mmHg 36%
    05:00 +32°C° 0 mm 4 mps 754 mmHg 36%
    06:00 +32°C° 0 mm 5 mps 755 mmHg 37%
    07:00 +33°C° 0 mm 5 mps 755 mmHg 35%
    08:00 +34°C° 0 mm 5 mps 755 mmHg 33%
    09:00 +35°C° 0 mm 5 mps 755 mmHg 31%
    10:00 +36°C° 0 mm 4 mps 755 mmHg 30%
    11:00 +36°C° 0 mm 4 mps 755 mmHg 29%
    12:00 +37°C° 0 mm 4 mps 755 mmHg 29%
    13:00 +37°C° 0 mm 4 mps 755 mmHg 28%
    14:00 +37°C° 0 mm 5 mps 755 mmHg 28%
    15:00 +37°C° 0 mm 5 mps 755 mmHg 28%
    16:00 +37°C° 0 mm 4 mps 755 mmHg 29%
    17:00 +36°C° 0 mm 4 mps 755 mmHg 29%
    18:00 +36°C° 0 mm 4 mps 754 mmHg 30%
    19:00 +35°C° 0 mm 3 mps 755 mmHg 31%
    20:00 +35°C° 0 mm 3 mps 755 mmHg 32%
    21:00 +34°C° 0 mm 2 mps 755 mmHg 34%
    22:00 +32°C° 0 mm 2 mps 755 mmHg 35%
    23:00 +32°C° 0 mm 1 mps 755 mmHg 36%

    29 June, Friday

    Time Temperature Precipitation Wind Pressure Humidity
    00:00 +30°C° 0 mm 0 mps 755 mmHg 36%
    01:00 +31°C° 0 mm 1 mps 754 mmHg 36%
    02:00 +31°C° 0 mm 1 mps 754 mmHg 36%
    03:00 +30°C° 0 mm 1 mps 754 mmHg 36%
    04:00 +31°C° 0 mm 1 mps 754 mmHg 36%
    05:00 +31°C° 0 mm 1 mps 754 mmHg 35%
    06:00 +32°C° 0 mm 1 mps 754 mmHg 34%
    07:00 +33°C° 0 mm 1 mps 754 mmHg 32%
    08:00 +34°C° 0 mm 1 mps 754 mmHg 30%
    09:00 +35°C° 0 mm 1 mps 755 mmHg 27%
    10:00 +37°C° 0 mm 2 mps 754 mmHg 25%
    11:00 +38°C° 0 mm 2 mps 754 mmHg 23%
    12:00 +39°C° 0 mm 3 mps 754 mmHg 20%
    13:00 +40°C° 0 mm 4 mps 754 mmHg 20%
    14:00 +41°C° 0 mm 4 mps 753 mmHg 20%
    15:00 +41°C° 0 mm 4 mps 753 mmHg 19%
    16:00 +40°C° 0 mm 4 mps 753 mmHg 21%
    17:00 +38°C° 0 mm 4 mps 753 mmHg 22%
    18:00 +38°C° 0 mm 4 mps 753 mmHg 23%
    19:00 +37°C° 0 mm 3 mps 753 mmHg 25%
    20:00 +36°C° 0 mm 2 mps 754 mmHg 27%
    21:00 +35°C° 0 mm 2 mps 754 mmHg 29%
    22:00 +35°C° 0 mm 2 mps 754 mmHg 29%
    23:00 +33°C° 0 mm 1 mps 754 mmHg 30%
    Show more